Miscellaneous Local Product
Issued by NWS Hastings, NE

Home | Current Version | Previous Version | Graphics & Text | Print | Product List | Glossary On
Versions: 1 2 3 4 5 6 7 8 9 10 11 12 13 14 15 16 17 18 19 20 21 22 23 24 25 26 27 28 29 30 31 32 33 34 35 36 37 38 39 40 41 42 43 44 45 46 47 48 49 50
000
AXUS43 KGID 301602
MISGRI

GID CWA HOURLY WEATHER ROUNDUP
NATIONAL WEATHER SERVICE HASTINGS NE
1100 AM CDT SAT APR 30 2016

NOTE: "FAIR" INDICATES FEW OR NO CLOUDS BELOW 12,000 FEET WITH NO
SIGNIFICANT WEATHER AND/OR OBSTRUCTIONS TO VISIBILITY.

...SOUTH CENTRAL NEBRASKA...

CITY           SKY/WX    TMP DP  RH WIND       PRES   REMARKS
GRAND ISLAND   LGT RAIN  44  42  93 NE16      29.74S FOG
HASTINGS       CLOUDY    45  43  93 NE14      29.72S FOG
KEARNEY        CLOUDY    43  39  87 N14       29.74F
ORD            LGT RAIN  42  40  92 NE15      29.78S FOG
YORK           PTSUNNY   45  45 100 NE14      29.71S FOG
AURORA         CLOUDY    44  44  99 NE15      29.72S FOG
LEXINGTON      LGT RAIN  39  37  90 N16       29.78S WCI  31
HOLDREGE       CLOUDY    42  40  94 N15       29.75S FOG
HEBRON         CLOUDY    47  46  96 N6        29.69S FOG

...NEBRASKA PANHANDLE...

CITY           SKY/WX    TMP DP  RH WIND       PRES   REMARKS
CHADRON        LGT RAIN  40  37  89 NE21G28   30.00S FOG     WCI  30
ALLIANCE       LGT SNOW  33  33 100 N24       29.90R VSB 3/4 WCI  20
SCOTTSBLUFF    LGT SNOW  35  32  88 N18       29.95R FOG     WCI  24
SIDNEY         LGT SNOW  34  31  88 N18       29.89S VSB 3/4 WCI  23

...WESTERN AND NORTH CENTRAL NEBRASKA...

CITY           SKY/WX    TMP DP  RH WIND       PRES   REMARKS
VALENTINE      LGT RAIN  39  35  86 NE25G31   29.92S WCI  28
AINSWORTH      SNOW      33  33  99 N14       29.88F VSB 1/4 WCI  23
ONEILL         LGT RAIN  40  38  92 NE30      29.82F WCI  29
BROKEN BOW     LGT RAIN  37  35  92 N20G25    29.78F WCI  27
IMPERIAL       LGT SNOW  34  32  92 N17       29.83R FOG     WCI  23
NORTH PLATTE   MIX PCPN  35  33  92 N15G23    29.81S WCI  25
MCCOOK         CLOUDY    39  36  89 N17       29.79F FOG     WCI  30

...EASTERN NEBRASKA...

CITY           SKY/WX    TMP DP  RH WIND       PRES   REMARKS
NORFOLK        CLOUDY    43  40  89 NE16      29.76R
SO SIOUX CITY  LGT RAIN  45  41  86 NE28G37   29.74F
TEKAMAH        CLOUDY    46  43  89 NE8       29.75R
COLUMBUS       CLOUDY    45  37  76 NE15G22   29.74S
ALBION         RAIN      42  40  93 NE15G21   29.77S
OMAHA EPPLEY   LGT RAIN  48  45  89 E9        29.72R FOG
MILLARD        DRIZZLE   47  46  95 E3        29.71R
LINCOLN        CLOUDY    48  46  93 NE13      29.71R FOG
NEBRASKA CITY  DRIZZLE   50  50 100 E8        29.67S
BEATRICE       CLOUDY    49  48  97 N5        29.67S FOG
FALLS CITY     CLOUDY    54  52  93 SE7       29.65R

...NORTHERN KANSAS...

CITY           SKY/WX    TMP DP  RH WIND       PRES   REMARKS
GOODLAND       CLOUDY    34  32  92 NW17      29.81S WCI  23
HILL CITY      CLOUDY    43  39  86 NW15      29.79R
NORTON         CLOUDY    39  36  87 NW13      29.77  FOG     WCI  32
PHILLIPSBURG   CLOUDY    45  45 100 W13       29.76R
SMITH CENTER   CLOUDY    46  45  93 NW8       29.74R
BELOIT         CLOUDY    46  45  93 W8        29.72R
HAYS           CLOUDY    46  37  71 NW15      29.77R
RUSSELL        MOSUNNY   52  46  80 W18       29.73S
CONCORDIA      CLOUDY    50  47  89 W9        29.70R
SALINA         CLOUDY    54  48  80 W17       29.73R
TOPEKA         CLOUDY    56  51  84 SW12      29.69R



USA.gov is the U.S. government's official web portal to all federal, state and local government web resources and services.